EW1071 Weather Reports


Display with metric or nautical units.
time (UTC)temp
F
wind
direction
speed
MPH
gust
MPH
rain 1hr
in
rain 24hr
in
rain mn
in
humidity
%
barometer
mb
20200808203125 55 109 8.0 17.0 0.00 0.00 0.00 83 1015.7
20200808201642 56 111 8.0 17.0 0.00 0.00 0.00 82 1015.8
20200808200207 56 108 6.0 15.0 0.00 0.00 0.00 82 1016.0
20200808194611 56 105 9.0 17.0 0.00 0.00 0.00 81 1016.0
20200808193225 56 110 6.0 18.0 0.00 0.00 0.00 81 1016.1
20200808191642 56 113 8.0 19.0 0.00 0.00 0.00 81 1016.0
20200808190153 56 115 8.0 16.0 0.00 0.00 0.00 81 1016.1
20200808184611 56 142 9.0 17.0 0.00 0.00 0.00 82 1015.9
20200808183128 56 112 8.0 14.0 0.00 0.00 0.00 82 1015.6
20200808181756 57 111 8.0 18.0 0.00 0.00 0.00 82 1015.3
20200808180254 57 115 9.0 19.0 0.00 0.00 0.00 83 1015.1
20200808174610 57 117 9.0 19.0 0.00 0.00 0.00 83 1014.9
20200808173248 58 107 7.0 18.0 0.00 0.00 0.00 82 1014.8
20200808171639 58 110 8.0 15.0 0.00 0.00 0.00 81 1014.9
20200808170124 59 116 9.0 17.0 0.00 0.00 0.00 80 1014.8
20200808164723 59 99 6.0 12.0 0.00 0.00 0.00 80 1014.8
20200808161630 59 94 6.0 16.0 0.00 0.00 0.00 81 1014.5
20200808160149 60 110 5.0 14.0 0.00 0.00 0.00 80 1014.5
20200808154554 60 115 5.0 15.0 0.00 0.00 0.00 79 1014.3
20200808153140 61 105 7.0 14.0 0.00 0.00 0.00 77 1014.1
20200808151621 61 94 5.0 12.0 0.00 0.00 0.00 74 1013.9
20200808150220 62 92 5.0 14.0 0.00 0.00 0.00 74 1013.8
20200808144617 62 119 3.0 11.0 0.00 0.00 0.00 73 1013.9
20200808143112 63 119 5.0 12.0 0.00 0.00 0.00 70 1013.8
20200808141646 64 125 4.0 10.0 0.00 0.00 0.00 65 1013.7
20200808140040 64 130 2.0 9.0 0.00 0.00 0.00 65 1013.7
20200808134556 63 130 2.0 8.0 0.00 0.00 0.00 68 1013.6
20200808133145 63 130 1.0 7.0 0.00 0.00 0.00 69 1013.6
20200808131617 63 130 2.0 7.0 0.00 0.00 0.00 69 1013.9
20200808130054 63 130 1.0 7.0 0.00 0.00 0.00 70 1013.9
20200808124541 63 130 1.0 8.0 0.00 0.00 0.00 71 1014.2
20200808123044 63 130 2.0 9.0 0.00 0.00 0.00 69 1014.4
20200808121558 64 130 0.0 0.0 0.00 0.00 0.00 67 1014.4
20200808120042 64 130 0.0 4.0 0.00 0.00 0.00 69 1014.5
20200808114558 64 130 0.0 4.0 0.00 0.00 0.00 68 1014.5
20200808113044 65 130 1.0 11.0 0.00 0.00 0.00 67 1014.7
20200808111556 65 88 1.0 9.0 0.00 0.00 0.00 68 1014.8
20200808110041 64 82 1.0 10.0 0.00 0.00 0.00 70 1014.9
20200808104531 61 74 0.0 3.0 0.00 0.00 0.00 75 1015.4
20200808103024 62 74 0.0 5.0 0.00 0.00 0.00 74 1016.0
20200808101520 62 75 0.0 2.0 0.00 0.00 0.00 72 1016.3
20200808100032 63 75 0.0 3.0 0.00 0.00 0.00 74 1016.4
20200808094518 62 75 1.0 6.0 0.00 0.00 0.00 75 1016.5
20200808093017 63 75 0.0 5.0 0.00 0.00 0.00 73 1016.5
20200808091511 61 74 0.0 3.0 0.00 0.00 0.00 79 1016.7
20200808090036 60 75 1.0 5.0 0.00 0.00 0.00 80 1016.8
20200808084509 60 75 1.0 6.0 0.00 0.00 0.00 80 1017.1
20200808083009 60 74 2.0 8.0 0.00 0.00 0.00 79 1017.2
20200808081510 60 75 0.0 4.0 0.00 0.00 0.00 81 1017.3
20200808080258 58 74 0.0 2.0 0.00 0.00 0.00 83 1017.2
20200808074626 58 74 0.0 4.0 0.00 0.00 0.00 83 1017.3
20200808073225 58 72 0.0 4.0 0.00 0.00 0.00 83 1017.3
20200808071622 58 72 0.0 5.0 0.00 0.00 0.00 84 1017.2
20200808070153 58 72 0.0 4.0 0.00 0.00 0.00 84 1017.1
20200808064657 58 72 0.0 3.0 0.00 0.00 0.00 86 1017.0
20200808063152 57 72 0.0 4.0 0.00 0.00 0.00 86 1017.0
20200808061618 57 72 0.0 0.0 0.00 0.00 0.00 86 1017.1
20200808060143 56 72 0.0 0.0 0.00 0.00 0.00 88 1017.1
20200808054610 55 72 0.0 3.0 0.00 0.00 0.00 89 1017.2
20200808053135 54 72 0.0 0.0 0.00 0.00 0.00 90 1017.0
20200808051607 54 72 0.0 0.0 0.00 0.00 0.00 91 1017.0
20200808050126 53 72 0.0 1.0 0.00 0.00 0.00 91 1016.9
20200808044619 53 72 0.0 0.0 0.00 0.00 0.00 90 1016.7
20200808043242 53 72 0.0 0.0 0.00 0.00 0.00 90 1016.5
20200808041621 53 72 0.0 0.0 0.00 0.00 0.00 90 1016.4
20200808040120 53 72 0.0 0.0 0.00 0.00 0.00 89 1016.1
20200808034615 53 72 0.0 0.0 0.00 0.00 0.00 88 1015.9
20200808033134 54 72 0.0 0.0 0.00 0.00 0.00 87 1015.7
20200808031602 54 72 0.0 1.0 0.00 0.00 0.00 86 1015.7
20200808030105 54 72 0.0 4.0 0.00 0.00 0.00 86 1015.7
20200808024600 54 72 0.0 4.0 0.00 0.00 0.00 87 1015.5
20200808023050 54 72 0.0 3.0 0.00 0.00 0.00 87 1015.3
20200808021549 54 72 0.0 0.0 0.00 0.00 0.00 86 1015.2
20200808020104 54 72 0.0 0.0 0.00 0.00 0.00 86 1015.1
20200808014624 54 72 0.0 0.0 0.00 0.00 0.00 86 1015.0
20200808013055 54 72 0.0 0.0 0.00 0.00 0.00 86 1014.9
20200808011545 54 72 0.0 0.0 0.00 0.00 0.00 85 1014.8
20200808010053 54 72 0.0 0.0 0.00 0.00 0.00 85 1014.8
20200808004537 55 72 0.0 1.0 0.00 0.00 0.00 84 1014.5
20200808003046 55 72 1.0 5.0 0.00 0.00 0.00 85 1014.6
20200808001524 54 72 3.0 9.0 0.00 0.00 0.00 86 1014.6
20200808000028 54 71 4.0 12.0 0.00 0.00 0.00 86 1014.6
20200807234546 54 93 5.0 15.0 0.00 0.00 0.00 86 1014.8
20200807233025 55 81 8.0 16.0 0.00 0.00 0.00 86 1014.8
20200807231548 55 78 7.0 17.0 0.00 0.00 0.00 86 1014.8
20200807230136 55 88 9.0 19.0 0.00 0.00 0.00 85 1014.8
20200807224534 55 111 9.0 23.0 0.00 0.00 0.00 86 1014.7
20200807223015 55 86 10.0 21.0 0.00 0.00 0.00 86 1014.8
20200807221512 55 107 8.0 18.0 0.00 0.00 0.00 84 1014.9
20200807220029 55 97 9.0 17.0 0.00 0.00 0.00 83 1015.1
20200807214505 56 103 10.0 20.0 0.00 0.00 0.00 83 1015.4
20200807213139 56 111 9.0 19.0 0.00 0.00 0.00 81 1015.6
20200807211732 56 81 7.0 19.0 0.00 0.00 0.00 81 1015.8
20200807210152 56 107 9.0 20.0 0.00 0.00 0.00 80 1016.0
20200807204623 57 119 8.0 21.0 0.00 0.00 0.00 79 1015.8